Location: Hylo
(54.6785°N, 112.2142°W)
Time: 12:12:46
(UTC+00:00)

ACS3 Solar Sail - Pass Details

Date: 24 September 2024
Orbit: 961 x 1035 km, 97.4° (Epoch: 08 October)

Event Time Altitude Azimuth Distance (km) Brightness Sun altitude
Exits shadow 03:35:17 11° 172° (S) 2,767 3.8 -19.2°
Maximum altitude 03:41:32 75° 258° (WSW) 1,079 2.1 -20.0°
Drops below altitude 10° 03:47:59 10° 344° (NNW) 2,843 4.9 -20.8°
Sets 03:50:31 0° 346° (NNW) 3,792 5.6 -21.1°
